www.pogodaiklimat.ru

Погода и климат >> Архив погоды >> Россия >> город Севастополь >> Севастополь


АРХИВ ПОГОДЫ в Севастополе

Время (UTC), дата Ветер
(напр.,м/с)
 
Видим.   Явления Облачность Т
(С)
Тd
(С)
f
(%)
Тe
(С)
Тes
(С)
Комфортность P
(гПа)
Po
(гПа)
Тmin
(С)
Tmax
(С)
R
(мм)
R24
(мм)
S
(см)
09 10.12 Ю 7 20 км 6 баллов +15.0 +5.8 54 +13 +14 тепло 1008.7 1008.0
12 10.12 ЮЗ 9 20 км в посл. час ливневой дождь 10 баллов +13.7 +7.9 68 +11 +11 тепло 1007.4 1006.7
15 10.12 ЮЗ 7 10 км в посл. час ливневой дождь 10 баллов +8.0 +6.5 90 +3 +3 прохладно 1010.0 1009.3 3
18 10.12 З 10 20 км 6 баллов +6.8 +3.4 79 +1 +1 прохладно 1014.0 1013.3 +15.4 3
21 10.12 З 7 20 км 10 баллов +6.9 -0.3 60 +2 +2 прохладно 1018.0 1017.3
00 11.12 ЮЗ 6 20 км 10 баллов +7.2 +0.4 62 +3 +3 по сезону 1020.7 1020.0
03 11.12 ЮЗ 5 20 км 4 балла +7.6 +1.2 64 +4 +4 по сезону 1022.0 1021.3 +6.3 0.3
06 11.12 ЮЗ 4 20 км 9 баллов +7.7 +2.4 69 +5 +5 по сезону 1022.0 1021.3 +6.3
09 11.12 ЮЗ 7 20 км 9 баллов +9.2 +3.6 68 +5 +5 по сезону 1023.4 1022.7
12 11.12 ЮЗ 7 20 км 9 баллов +10.8 +6.2 73 +7 +7 по сезону 1022.0 1021.3
15 11.12 Ю 5 20 км 9 баллов +10.4 +7.3 81 +7 +7 по сезону 1022.0 1021.3
18 11.12 Ю 5 20 км 9 баллов +10.5 +8.1 85 +8 +8 тепло 1022.0 1021.3 +10.9
21 11.12 Ю 4 20 км 1 балл +10.4 +7.6 83 +8 +8 тепло 1022.0 1021.3
00 12.12 Ю 5 20 км 2 балла +11.5 +8.7 83 +9 +9 тепло 1020.7 1020.0
03 12.12 Ю 4 20 км 2 балла +12.1 +8.8 80 +10 +10 тепло 1020.7 1020.0 +10.3
06 12.12 Ю 5 20 км 9 баллов +12.5 +8.6 77 +10 +10 тепло 1022.0 1021.3 +10.4
09 12.12 Ю 7 20 км 7 баллов +13.6 +10.2 80 +11 +11 тепло 1022.0 1021.3
12 12.12 ЮЗ 5 20 км 2 балла +14.2 +11.2 82 +12 +13 тепло 1020.7 1020.0
15 12.12 Ю 4 20 км 2 балла +12.9 +9.7 81 +11 +11 тепло 1020.7 1020.0
18 12.12 Ю 4 20 км ясно +12.5 +9.5 82 +11 +11 тепло 1020.7 1020.0 +14.4
21 12.12 ЮЗ 4 20 км ясно +12.0 +9.7 86 +10 +10 тепло 1020.7 1020.0
00 13.12 ЮЗ 4 20 км ясно +11.8 +9.9 88 +10 +10 тепло 1020.7 1020.0
03 13.12 Ю 4 20 км ясно +11.6 +9.7 88 +9 +9 тепло 1019.4 1018.7 +11.6
06 13.12 Ю 2 20 км ясно +11.4 +9.5 88 +10 +10 тепло 1019.4 1018.7 +11.2
09 13.12 ЮЗ 5 20 км 4 балла +13.0 +10.4 84 +11 +12 тепло 1019.4 1018.7
12 13.12 ЮЗ 5 20 км 4 балла +13.4 +10.9 85 +11 +12 тепло 1018.0 1017.3
15 13.12 Ю 3 20 км 7 баллов +11.3 +9.0 86 +9 +9 тепло 1018.0 1017.3
18 13.12 Ю 2 20 км 9 баллов +11.0 +8.7 86 +10 +10 тепло 1018.0 1017.3 +13.5
21 13.12 Ю 3 20 км 7 баллов +10.4 +8.3 87 +8 +8 тепло 1016.7 1016.0
00 14.12 Ю 3 20 км 9 баллов +10.8 +8.6 86 +9 +9 тепло 1015.4 1014.7
03 14.12 Ю 3 20 км 9 баллов +11.6 +9.2 85 +10 +10 тепло 1014.0 1013.3 +10.3
06 14.12 Ю 4 20 км 9 баллов +12.7 +9.2 79 +11 +11 тепло 1014.0 1013.3 +10.3
09 14.12 ЮЗ 6 20 км 10 баллов +13.0 +10.4 84 +11 +11 тепло 1014.0 1013.3
12 14.12 ЮЗ 4 20 км 9 баллов +13.2 +10.6 84 +11 +12 тепло 1012.7 1012.0
15 14.12 Ю 3 20 км 9 баллов +12.2 +10.3 88 +11 +11 тепло 1012.7 1012.0
18 14.12 Ю 2 20 км 10 баллов +11.8 +10.4 91 +11 +11 тепло 1014.0 1013.3 +13.3
21 14.12 Ю 2 20 км 2 балла +11.0 +9.7 92 +10 +10 тепло 1014.0 1013.3
00 15.12 В 1 20 км 4 балла +9.7 +8.6 93 +9 +9 тепло 1014.0 1013.3
03 15.12 В 1 20 км 9 баллов +9.7 +8.6 93 +9 +9 тепло 1014.0 1013.3 +9.4
06 15.12 В 1 20 км 10 баллов +10.6 +8.2 85 +10 +10 тепло 1015.4 1014.7 +9.4
09 15.12 Ю 3 10 км 10 баллов +11.8 +9.7 87 +10 +10 тепло 1015.4 1014.7
12 15.12 ЮЗ 4 20 км 9 баллов +12.6 +10.3 86 +11 +11 тепло 1015.4 1014.7
15 15.12 Ю 3 20 км 9 баллов +11.9 +9.6 86 +10 +10 тепло 1015.4 1014.7 3
18 15.12 Ю 4 20 км 2 балла +11.4 +9.1 86 +9 +9 тепло 1016.7 1016.0 +12.8 3
21 15.12 Ю 4 20 км ясно +11.4 +9.1 86 +9 +9 тепло 1015.4 1014.7
00 16.12 Ю 4 20 км 6 баллов +13.0 +9.1 77 +11 +11 тепло 1015.4 1014.7
03 16.12 Ю 4 20 км 7 баллов +14.3 +7.3 63 +13 +13 тепло 1014.0 1013.3 +11.2
06 16.12 Ю 5 20 км 9 баллов +15.1 +5.3 52 +14 +14 тепло 1012.7 1012.0 +11.2
09 16.12 Ю 4 20 км 9 баллов +15.3 +7.3 59 +14 +15 тепло 1014.0 1013.3
12 16.12 ЮЗ 5 20 км 9 баллов +17.1 +7.7 54 +16 +17 тепло 1011.4 1010.7
15 16.12 Ю 5 20 км 4 балла +14.7 +7.3 61 +13 +13 тепло 1012.7 1012.0
18 16.12 Ю 4 20 км 7 баллов +15.6 +6.6 55 +15 +15 тепло 1012.7 1012.0 +17.1
21 16.12 Ю 5 20 км в посл. час ливневой дождь 9 баллов +15.8 +6.8 55 +15 +15 тепло 1014.0 1013.3
00 17.12 Ю 4 20 км в посл. час ливневой дождь 9 баллов +13.5 +9.7 78 +12 +12 тепло 1014.0 1013.3
03 17.12 ЮЗ 5 10 км слабый ливневой дождь 10 баллов +13.0 +10.5 85 +11 +11 тепло 1014.0 1013.3 +13.0 1
06 17.12 Ю 2 10 км слабый ливневой дождь 10 баллов +12.0 +9.7 86 +11 +11 тепло 1015.4 1014.7 +12.0 3

 

Местоположение метеостанции Севастополь (город Севастополь, Россия): широта 44.62 долгота 33.53 высота над уровнем моря 6 м.

В архиве по умолчанию представлена погода в Севастополе за последнюю неделю. Архивные данные за месяц целиком и за предыдущие месяцы, начиная с января 2011 года, Вы можете получить, выбрав интересующий диапазон дат из раскрывающегося списка и нажав кнопку "Ввод!".

Внимание! Время в таблицах - всемирное. Для получения местного времени необходимо прибавить поправку, которая в Севастополе равна 3 ч.

Смотрите также архив погоды в соседних городах и на ближайших метеорологических станциях:

Погода в Херсонесском Маяке (город Севастополь, Россия) (13 км)
Погода в Ай-Петри (Крым, Россия) (47 км)
Погода в Ялте (Крым, Россия) (53 км)
Погода в Симферополе (Крым, Россия) (57 км)
Погода в Никитском саду (Крым, Россия) (58 км)
Погода в Евпатории (Крым, Россия) (64 км)
Погода в Алуште (Крым, Россия) (69 км)
Погода в Белогорске (Крым, Россия) (97 км)
Погода в Клепинино (Крым, Россия) (113 км)
Погода в Черноморском (Крым, Россия) (119 км)

Пояснения к столбцам:

Ветер - указаны скорость ветра в м/с - средняя за 10 мин, порывы в срок и между сроками (в фигурных скобках) и направление, откуда дует ветер: С - северный, СВ - северо-восточный, В - восточный, ЮВ - юго-восточный, Ю - южный, ЮЗ - юго-западный, З - западный, СЗ - северо-западный.
Видимость - горизонтальная дальность видимости в метрах или километрах. При видимости от 1 до 10 км при отсутствии осадков обычно наблюдается дымка, при ухудшении видимости до 1 км и менее - туман. В сухую погоду видимость может ухудшаться дымом, пылью или мглою.
Явления - указаны атмосферные явления, наблюдавшиеся в срок или в последний час перед сроком; фигурными скобками обозначены явления, наблюдавшиеся между сроками (за 1-3 часа до срока); квадратными скобками обозначены град или гололедные отложения с указанием их диаметра в мм.
Облачность - указаны через наклонную черту общая и нижняя облачность в баллах и высота нижней границы облаков в метрах; квадратными скобками обозначены формы облаков: Ci - перистые, Cs - перисто-слоистые, Cc - перисто-кучевые, Ac - высококучевые, As - высокослоистые, Sc - слоисто-кучевые, Ns - слоисто-дождевые, Cu - кучевые, Cb - кучево-дождевые. Подробнее классификацию облаков см. в Атласе облаков (PDF).
T - Температура воздуха - температура, измеренная на высоте 2 м над землей.
Td - Температура точки росы - температура, при понижении до которой содержащийся в воздухе водяной пар достигнет насыщения.
f - Относительная влажность воздуха - влажноcть воздуха, измеренная на высоте 2 м над землей.
Te - Эффективная температура - температура, которую ощущает одетый по сезону человек в тени. Характеристика душности погоды. При расчете учитывается влияние влажности воздуха и скорости ветра на теплоощущения человека.
Tes - Эффективная температура на солнце - температура, которую ощущает человек, с поправкой на солнечный нагрев. Характеристика знойности погоды. Зависит от высоты солнца над горизонтом, облачности и скорости ветра. Ночью, в пасмурную погоду, а также при ветре 12 м/с и более поправка равна нулю.
P - Атмосферное давление - приведенное к уровню моря атмосферное давление.
Po - Атмосферное давление - измеренное на уровне метеостанции атмосферное давление.
Tmin - Минимальная температура - минимум температуры воздуха на высоте 2 м над землей.
Tmax - Максимальная температура - максимум температуры воздуха на высоте 2 м над землей.
R - Количество осадков - Количество выпавших осадков за период времени, мм. При наведении курсора мыши на число - период времени, за который выпало указанное количество осадков.
R24 - Количество осадков - Количество выпавших осадков за 24 часа, мм.
S - Снежный покров - Высота снежного покрова, см. При наведении курсора мыши на число - состояние снежного покрова и степень покрытия местности в баллах.